Regional Weather Roundup
Issued by NWS

Home | Current Version | Previous Version | Text Only | Print | Product List | Glossary Off
Versions: 1 2 3 4 5 6 7 8 9 10 11 12 13 14 15 16 17 18 19 20 21 22 23 24 25 26 27 28 29 30 31 32 33 34 35 36 37 38 39 40 41 42 43 44 45 46 47 48 49 50

000
ASUS43 KFSD 261210
RWRSD

WEATHER ROUNDUP FOR SOUTH DAKOTA
NATIONAL WEATHER SERVICE SIOUX FALLS SD
700 AM CDT FRI AUG 26 2016

NOTE: "FAIR" INDICATES FEW OR NO CLOUDS BELOW 12,000 FEET WITH NO
SIGNIFICANT WEATHER AND/OR OBSTRUCTIONS TO VISIBILITY.


SDZ001>005-009-010-012>017-261300-
NORTHWEST AND NORTH CENTRAL SOUTH DAKOTA

CITY           SKY/WX    TMP DP  RH WIND       PRES   REMARKS
BUFFALO          N/A     52  44  74 S8        30.06F
FAITH            N/A     52  47  83 S13       30.15S
MOBRIDGE       PTCLDY    52  47  83 S8        30.13R
$$

SDZ012>016-024>037-041>051-057-063-072>074-261300-
SOUTHWEST AND SOUTH CENTRAL SOUTH DAKOTA

CITY           SKY/WX    TMP DP  RH WIND       PRES   REMARKS
RAPID CTY ARPT HVY RAIN  53  51  93 W5        30.18F
PIERRE         CLOUDY    51  48  89 CALM      30.16R
CUSTER         LGT RAIN  46  44  93 E8        30.19F FOG
ELLSWORTH AFB  LGT RAIN  53  53 100 SW3       30.17F
PHILIP         LGT RAIN  54  53  97 E5        30.15F
PINE RIDGE     LGT RAIN  54  49  83 E8        30.13F
WINNER         CLOUDY    57  52  83 CALM      30.18R
$$

SDZ004>011-016>023-039-040-261300-
NORTHEAST SOUTH DAKOTA

CITY           SKY/WX    TMP DP  RH WIND       PRES   REMARKS
ABERDEEN       CLEAR     44  42  93 CALM      30.16R
WATERTOWN      CLEAR     48  46  93 CALM      30.17S
BROOKINGS      CLEAR     46  45  96 CALM      30.19R
SISSETON         N/A     48  46  93 S3        30.14R
$$

SDZ017-020-022-023-036>040-048>070-261300-
SOUTHEAST SOUTH DAKOTA

CITY           SKY/WX    TMP DP  RH WIND       PRES   REMARKS
SIOUX FALLS    CLOUDY    49  49 100 NE5       30.19R
HURON          CLEAR     45  43  93 CALM      30.17S
CHAMBERLAIN    CLEAR     49  48  95 CALM      30.17S
MITCHELL       FOG       48  47  96 CALM      30.19R VSB 3/4
YANKTON        PTCLDY    52  46  82 CALM      30.17R
$$

ABBREVIATIONS USED IN REMARKS
   TC - TEMPERATURE IN CELSIUS
  WCI - WIND CHILL INDEX
   HX - HEAT INDEX
  VSB - VISIBILITY





USA.gov is the U.S. government's official web portal to all federal, state and local government web resources and services.